Year,Month,Day,Hour,Minute,Value (Times are PST for temperature in C)
2017,05,26,00,00,12.10
2017,05,26,00,01,12.10
2017,05,26,00,02,12.10
2017,05,26,00,03,12.10
2017,05,26,00,04,12.10
2017,05,26,00,05,12.00
2017,05,26,00,06,12.00
2017,05,26,00,07,12.00
2017,05,26,00,08,12.00
2017,05,26,00,09,12.00
2017,05,26,00,10,12.00
2017,05,26,00,11,11.90
2017,05,26,00,12,11.90
2017,05,26,00,13,11.90
2017,05,26,00,14,11.90
2017,05,26,00,15,11.80
2017,05,26,00,16,11.80
2017,05,26,00,17,11.80
2017,05,26,00,18,11.80
2017,05,26,00,19,11.80
2017,05,26,00,20,11.80
2017,05,26,00,21,11.80
2017,05,26,00,22,11.80
2017,05,26,00,23,11.80
2017,05,26,00,24,11.80
2017,05,26,00,25,11.80
2017,05,26,00,26,11.80
2017,05,26,00,27,11.90
2017,05,26,00,28,11.90
2017,05,26,00,29,11.90
2017,05,26,00,30,11.90
2017,05,26,00,31,11.90
2017,05,26,00,32,11.90
2017,05,26,00,33,11.90
2017,05,26,00,34,11.90
2017,05,26,00,35,12.00
2017,05,26,00,36,12.00
2017,05,26,00,37,12.00
2017,05,26,00,38,12.00
2017,05,26,00,39,12.00
2017,05,26,00,40,11.90
2017,05,26,00,41,11.90
2017,05,26,00,42,11.90
2017,05,26,00,43,11.90
2017,05,26,00,44,11.90
2017,05,26,00,45,11.90
2017,05,26,00,46,11.80
2017,05,26,00,47,11.80
2017,05,26,00,48,11.80
2017,05,26,00,49,11.80
2017,05,26,00,50,11.80
2017,05,26,00,51,11.80
2017,05,26,00,52,11.80
2017,05,26,00,53,11.90
2017,05,26,00,54,11.90
2017,05,26,00,55,12.00
2017,05,26,00,56,12.00
2017,05,26,00,57,12.00
2017,05,26,00,58,12.00
2017,05,26,00,59,12.10
2017,05,26,01,00,12.10
2017,05,26,01,01,12.10
2017,05,26,01,02,12.10
2017,05,26,01,03,12.10
2017,05,26,01,04,12.20
2017,05,26,01,05,12.20
2017,05,26,01,06,12.10
2017,05,26,01,07,12.10
2017,05,26,01,08,12.10
2017,05,26,01,09,12.10
2017,05,26,01,10,12.10
2017,05,26,01,11,12.00
2017,05,26,01,12,12.00
2017,05,26,01,13,12.00
2017,05,26,01,14,12.00
2017,05,26,01,15,12.00
2017,05,26,01,16,12.00
2017,05,26,01,17,12.00
2017,05,26,01,18,12.00
2017,05,26,01,19,11.90
2017,05,26,01,20,11.90
2017,05,26,01,21,11.90
2017,05,26,01,22,11.90
2017,05,26,01,23,11.90
2017,05,26,01,24,11.90
2017,05,26,01,25,11.80
2017,05,26,01,26,11.80
2017,05,26,01,27,11.80
2017,05,26,01,28,11.90
2017,05,26,01,29,11.90
2017,05,26,01,30,11.80
2017,05,26,01,31,11.80
2017,05,26,01,32,11.80
2017,05,26,01,33,11.80
2017,05,26,01,34,11.80
2017,05,26,01,35,11.80
2017,05,26,01,36,11.80
2017,05,26,01,37,11.80
2017,05,26,01,38,11.70
2017,05,26,01,39,11.70
2017,05,26,01,40,11.70
2017,05,26,01,41,11.60
2017,05,26,01,42,11.60
2017,05,26,01,43,11.60
2017,05,26,01,44,11.60
2017,05,26,01,45,11.60
2017,05,26,01,46,11.50
2017,05,26,01,47,11.40
2017,05,26,01,48,11.40
2017,05,26,01,49,11.40
2017,05,26,01,50,11.40
2017,05,26,01,51,11.40
2017,05,26,01,52,11.40
2017,05,26,01,53,11.50
2017,05,26,01,54,11.60
2017,05,26,01,55,11.50
2017,05,26,01,56,11.40
2017,05,26,01,57,11.40
2017,05,26,01,58,11.40
2017,05,26,01,59,11.40
2017,05,26,02,00,11.40
2017,05,26,02,01,11.40
2017,05,26,02,02,11.40
2017,05,26,02,03,11.40
2017,05,26,02,04,11.40
2017,05,26,02,05,11.40
2017,05,26,02,06,11.40
2017,05,26,02,07,11.40
2017,05,26,02,08,11.40
2017,05,26,02,09,11.40
2017,05,26,02,10,11.40
2017,05,26,02,11,11.40
2017,05,26,02,12,11.40
2017,05,26,02,13,11.40
2017,05,26,02,14,11.40
2017,05,26,02,15,11.40
2017,05,26,02,16,11.40
2017,05,26,02,17,11.40
2017,05,26,02,18,11.40
2017,05,26,02,19,11.40
2017,05,26,02,20,11.40
2017,05,26,02,21,11.40
2017,05,26,02,22,11.40
2017,05,26,02,23,11.40
2017,05,26,02,24,11.40
2017,05,26,02,25,11.40
2017,05,26,02,26,11.40
2017,05,26,02,27,11.40
2017,05,26,02,28,11.40
2017,05,26,02,29,11.40
2017,05,26,02,30,11.40
2017,05,26,02,31,11.40
2017,05,26,02,32,11.40
2017,05,26,02,33,11.40
2017,05,26,02,34,11.40
2017,05,26,02,35,11.40
2017,05,26,02,36,11.40
2017,05,26,02,37,11.40
2017,05,26,02,38,11.40
2017,05,26,02,39,11.40
2017,05,26,02,40,11.30
2017,05,26,02,41,11.30
2017,05,26,02,42,11.30
2017,05,26,02,43,11.30
2017,05,26,02,44,11.30
2017,05,26,02,45,11.30
2017,05,26,02,46,11.30
2017,05,26,02,47,11.20
2017,05,26,02,48,11.20
2017,05,26,02,49,11.20
2017,05,26,02,50,11.30
2017,05,26,02,51,11.30
2017,05,26,02,52,11.30
2017,05,26,02,53,11.30
2017,05,26,02,54,11.30
2017,05,26,02,55,11.30
2017,05,26,02,56,11.30
2017,05,26,02,57,11.20
2017,05,26,02,58,11.20
2017,05,26,02,59,11.20
2017,05,26,03,00,11.20
2017,05,26,03,01,11.20
2017,05,26,03,02,11.30
2017,05,26,03,03,11.30
2017,05,26,03,04,11.30
2017,05,26,03,05,11.30
2017,05,26,03,06,11.30
2017,05,26,03,07,11.30
2017,05,26,03,08,11.30
2017,05,26,03,09,11.30
2017,05,26,03,10,11.30
2017,05,26,03,11,11.20
2017,05,26,03,12,11.20
2017,05,26,03,13,11.20
2017,05,26,03,14,11.10
2017,05,26,03,15,11.10
2017,05,26,03,16,11.10
2017,05,26,03,17,11.10
2017,05,26,03,18,11.00
2017,05,26,03,19,10.90
2017,05,26,03,20,10.90
2017,05,26,03,21,10.90
2017,05,26,03,22,10.90
2017,05,26,03,23,10.80
2017,05,26,03,24,10.80
2017,05,26,03,25,10.80
2017,05,26,03,26,10.70
2017,05,26,03,27,10.70
2017,05,26,03,28,10.60
2017,05,26,03,29,10.60
2017,05,26,03,30,10.60
2017,05,26,03,31,10.60
2017,05,26,03,32,10.60
2017,05,26,03,33,10.60
2017,05,26,03,34,10.60
2017,05,26,03,35,10.50
2017,05,26,03,36,10.40
2017,05,26,03,37,10.40
2017,05,26,03,38,10.40
2017,05,26,03,39,10.40
2017,05,26,03,40,10.40
2017,05,26,03,41,10.40
2017,05,26,03,42,10.40
2017,05,26,03,43,10.30
2017,05,26,03,44,10.30
2017,05,26,03,45,10.30
2017,05,26,03,46,10.30
2017,05,26,03,47,10.30
2017,05,26,03,48,10.30
2017,05,26,03,49,10.30
2017,05,26,03,50,10.30
2017,05,26,03,51,10.30
2017,05,26,03,52,10.30
2017,05,26,03,53,10.30
2017,05,26,03,54,10.30
2017,05,26,03,55,10.30
2017,05,26,03,56,10.30
2017,05,26,03,57,10.30
2017,05,26,03,58,10.40
2017,05,26,03,59,10.40
2017,05,26,04,00,10.40
2017,05,26,04,01,10.40
2017,05,26,04,02,10.40
2017,05,26,04,03,10.40
2017,05,26,04,04,10.30
2017,05,26,04,05,10.30
2017,05,26,04,06,10.30
2017,05,26,04,07,10.30
2017,05,26,04,08,10.30
2017,05,26,04,09,10.30
2017,05,26,04,10,10.30
2017,05,26,04,11,10.20
2017,05,26,04,12,10.20
2017,05,26,04,13,10.20
2017,05,26,04,14,10.20
2017,05,26,04,15,10.20
2017,05,26,04,16,10.20
2017,05,26,04,17,10.20
2017,05,26,04,18,10.20
2017,05,26,04,19,10.20
2017,05,26,04,20,10.20
2017,05,26,04,21,10.10
2017,05,26,04,22,10.10
2017,05,26,04,23,10.10
2017,05,26,04,24,10.10
2017,05,26,04,25,10.10
2017,05,26,04,26,10.10
2017,05,26,04,27,10.10
2017,05,26,04,28,10.10
2017,05,26,04,29,10.10
2017,05,26,04,30,10.10
2017,05,26,04,31,10.10
2017,05,26,04,32,9.90
2017,05,26,04,33,9.90
2017,05,26,04,34,9.90
2017,05,26,04,35,9.90
2017,05,26,04,36,9.90
2017,05,26,04,37,9.90
2017,05,26,04,38,9.90
2017,05,26,04,39,9.90
2017,05,26,04,40,9.90
2017,05,26,04,41,9.90
2017,05,26,04,42,9.90
2017,05,26,04,43,9.90
2017,05,26,04,44,9.90
2017,05,26,04,45,9.80
2017,05,26,04,46,9.80
2017,05,26,04,47,9.80
2017,05,26,04,48,9.90
2017,05,26,04,49,9.90
2017,05,26,04,50,9.90
2017,05,26,04,51,9.80
2017,05,26,04,52,9.80
2017,05,26,04,53,9.80
2017,05,26,04,54,9.80
2017,05,26,04,55,9.80
2017,05,26,04,56,9.80
2017,05,26,04,57,9.80
2017,05,26,04,58,9.80
2017,05,26,04,59,9.80
2017,05,26,05,00,9.80
2017,05,26,05,01,9.80
2017,05,26,05,02,9.80
2017,05,26,05,03,9.80
2017,05,26,05,04,9.80
2017,05,26,05,05,9.80
2017,05,26,05,06,9.90
2017,05,26,05,07,9.90
2017,05,26,05,08,9.90
2017,05,26,05,09,9.90
2017,05,26,05,10,9.80
2017,05,26,05,11,9.80
2017,05,26,05,12,9.80
2017,05,26,05,13,9.80
2017,05,26,05,14,9.80
2017,05,26,05,15,9.80
2017,05,26,05,16,9.90
2017,05,26,05,17,9.90
2017,05,26,05,18,9.90
2017,05,26,05,19,9.90
2017,05,26,05,20,9.90
2017,05,26,05,21,9.90
2017,05,26,05,22,9.90
2017,05,26,05,23,9.90
2017,05,26,05,24,9.90
2017,05,26,05,25,9.90
2017,05,26,05,26,9.90
2017,05,26,05,27,9.90
2017,05,26,05,28,9.90
2017,05,26,05,29,9.90
2017,05,26,05,30,9.90
2017,05,26,05,31,9.90
2017,05,26,05,32,9.90
2017,05,26,05,33,9.90
2017,05,26,05,34,9.90
2017,05,26,05,35,9.90
2017,05,26,05,36,9.90
2017,05,26,05,37,9.90
2017,05,26,05,38,9.90
2017,05,26,05,39,9.90
2017,05,26,05,40,9.90
2017,05,26,05,41,9.90
2017,05,26,05,42,9.90
2017,05,26,05,43,10.00
2017,05,26,05,44,10.10
2017,05,26,05,45,10.10
2017,05,26,05,46,10.10
2017,05,26,05,47,10.10
2017,05,26,05,48,10.10
2017,05,26,05,49,10.10
2017,05,26,05,50,10.10
2017,05,26,05,51,10.10
2017,05,26,05,52,10.10
2017,05,26,05,53,10.10
2017,05,26,05,54,10.10
2017,05,26,05,55,10.10
2017,05,26,05,56,10.20
2017,05,26,05,57,10.20
2017,05,26,05,58,10.30
2017,05,26,05,59,10.30
2017,05,26,06,00,10.40
2017,05,26,06,01,10.40
2017,05,26,06,02,10.40
2017,05,26,06,03,10.40
2017,05,26,06,04,10.40
2017,05,26,06,05,10.40
2017,05,26,06,06,10.50
2017,05,26,06,07,10.60
2017,05,26,06,08,10.60
2017,05,26,06,09,10.60
2017,05,26,06,10,10.60
2017,05,26,06,11,10.60
2017,05,26,06,12,10.70
2017,05,26,06,13,10.70
2017,05,26,06,14,10.70
2017,05,26,06,15,10.70
2017,05,26,06,16,10.70
2017,05,26,06,17,10.70
2017,05,26,06,18,10.70
2017,05,26,06,19,10.70
2017,05,26,06,20,10.80
2017,05,26,06,21,10.80
2017,05,26,06,22,10.80
2017,05,26,06,23,10.80
2017,05,26,06,24,10.80
2017,05,26,06,25,10.90
2017,05,26,06,26,10.90
2017,05,26,06,27,10.90
2017,05,26,06,28,11.00
2017,05,26,06,29,11.10
2017,05,26,06,30,11.10
2017,05,26,06,31,11.20
2017,05,26,06,32,11.20
2017,05,26,06,33,11.30
2017,05,26,06,34,11.30
2017,05,26,06,35,11.30
2017,05,26,06,36,11.40
2017,05,26,06,37,11.40
2017,05,26,06,38,11.50
2017,05,26,06,39,11.60
2017,05,26,06,40,11.60
2017,05,26,06,41,11.60
2017,05,26,06,42,11.60
2017,05,26,06,43,11.60
2017,05,26,06,44,11.60
2017,05,26,06,45,11.60
2017,05,26,06,46,11.60
2017,05,26,06,47,11.60
2017,05,26,06,48,11.60
2017,05,26,06,49,11.60
2017,05,26,06,50,11.60
2017,05,26,06,51,11.60
2017,05,26,06,52,11.60
2017,05,26,06,53,11.60
2017,05,26,06,54,11.60
2017,05,26,06,55,11.60
2017,05,26,06,56,11.60
2017,05,26,06,57,11.60
2017,05,26,06,58,11.70
2017,05,26,06,59,11.70
2017,05,26,07,00,11.80
2017,05,26,07,01,11.80
2017,05,26,07,02,11.80
2017,05,26,07,03,11.80
2017,05,26,07,04,11.90
2017,05,26,07,05,11.90
2017,05,26,07,06,11.90
2017,05,26,07,07,11.90
2017,05,26,07,08,12.00
2017,05,26,07,09,12.00
2017,05,26,07,10,12.00
2017,05,26,07,11,12.00
2017,05,26,07,12,12.00
2017,05,26,07,13,12.10
2017,05,26,07,14,12.10
2017,05,26,07,15,12.10
2017,05,26,07,16,12.20
2017,05,26,07,17,12.20
2017,05,26,07,18,12.20
2017,05,26,07,19,12.30
2017,05,26,07,20,12.30
2017,05,26,07,21,12.40
2017,05,26,07,22,12.50
2017,05,26,07,23,12.50
2017,05,26,07,24,12.50
2017,05,26,07,25,12.50
2017,05,26,07,26,12.50
2017,05,26,07,27,12.40
2017,05,26,07,28,12.40
2017,05,26,07,29,12.40
2017,05,26,07,30,12.40
2017,05,26,07,31,12.40
2017,05,26,07,32,12.40
2017,05,26,07,33,12.40
2017,05,26,07,34,12.50
2017,05,26,07,35,12.50
2017,05,26,07,36,12.60
2017,05,26,07,37,12.70
2017,05,26,07,38,12.80
2017,05,26,07,39,12.80
2017,05,26,07,40,12.80
2017,05,26,07,41,12.90
2017,05,26,07,42,12.90
2017,05,26,07,43,12.90
2017,05,26,07,44,13.00
2017,05,26,07,45,13.00
2017,05,26,07,46,13.10
2017,05,26,07,47,13.10
2017,05,26,07,48,13.20
2017,05,26,07,49,13.30
2017,05,26,07,50,13.40
2017,05,26,07,51,13.60
2017,05,26,07,52,13.70
2017,05,26,07,53,13.80
2017,05,26,07,54,13.90
2017,05,26,07,55,13.90
2017,05,26,07,56,14.00
2017,05,26,07,57,14.10
2017,05,26,07,58,14.20
2017,05,26,07,59,14.20
2017,05,26,08,00,14.30
2017,05,26,08,01,14.40
2017,05,26,08,02,14.50
2017,05,26,08,03,14.50
2017,05,26,08,04,14.60
2017,05,26,08,05,14.70
2017,05,26,08,06,14.70
2017,05,26,08,07,14.70
2017,05,26,08,08,14.70
2017,05,26,08,09,14.80
2017,05,26,08,10,14.80
2017,05,26,08,11,14.80
2017,05,26,08,12,14.80
2017,05,26,08,13,14.80
2017,05,26,08,14,14.80
2017,05,26,08,15,14.90
2017,05,26,08,16,14.90
2017,05,26,08,17,14.90
2017,05,26,08,18,15.00
2017,05,26,08,19,15.00
2017,05,26,08,20,15.10
2017,05,26,08,21,15.10
2017,05,26,08,22,15.10
2017,05,26,08,23,15.10
2017,05,26,08,24,15.10
2017,05,26,08,25,15.10
2017,05,26,08,26,15.10
2017,05,26,08,27,15.10
2017,05,26,08,28,15.10
2017,05,26,08,29,15.20
2017,05,26,08,30,15.20
2017,05,26,08,31,15.40
2017,05,26,08,32,15.50
2017,05,26,08,33,15.50
2017,05,26,08,34,15.60
2017,05,26,08,35,15.60
2017,05,26,08,36,15.60
2017,05,26,08,37,15.60
2017,05,26,08,38,15.60
2017,05,26,08,39,15.70
2017,05,26,08,40,15.70
2017,05,26,08,41,15.70
2017,05,26,08,42,15.70
2017,05,26,08,43,15.70
2017,05,26,08,44,15.70
2017,05,26,08,45,15.80
2017,05,26,08,46,15.80
2017,05,26,08,47,15.80
2017,05,26,08,48,15.70
2017,05,26,08,49,15.80
2017,05,26,08,50,15.70
2017,05,26,08,51,15.70
2017,05,26,08,52,15.70
2017,05,26,08,53,15.70
2017,05,26,08,54,15.70
2017,05,26,08,55,15.70
2017,05,26,08,56,15.70
2017,05,26,08,57,15.70
2017,05,26,08,58,15.80
2017,05,26,08,59,15.80
2017,05,26,09,00,15.80
2017,05,26,09,01,15.80
2017,05,26,09,02,15.80
2017,05,26,09,03,15.80
2017,05,26,09,04,15.80
2017,05,26,09,05,15.70
2017,05,26,09,06,15.70
2017,05,26,09,07,15.70
2017,05,26,09,08,15.60
2017,05,26,09,09,15.60
2017,05,26,09,10,15.60
2017,05,26,09,11,15.60
2017,05,26,09,12,15.50
2017,05,26,09,13,15.50
2017,05,26,09,14,15.40
2017,05,26,09,15,15.30
2017,05,26,09,16,15.30
2017,05,26,09,17,15.30
2017,05,26,09,18,15.30
2017,05,26,09,19,15.40
2017,05,26,09,20,15.40
2017,05,26,09,21,15.40
2017,05,26,09,22,15.40
2017,05,26,09,23,15.50
2017,05,26,09,24,15.60
2017,05,26,09,25,15.70
2017,05,26,09,26,15.80
2017,05,26,09,27,15.80
2017,05,26,09,28,15.80
2017,05,26,09,29,15.80
2017,05,26,09,30,15.80
2017,05,26,09,31,15.80
2017,05,26,09,32,15.70
2017,05,26,09,33,15.70
2017,05,26,09,34,15.80
2017,05,26,09,35,15.80
2017,05,26,09,36,15.80
2017,05,26,09,37,15.90
2017,05,26,09,38,16.00
2017,05,26,09,39,16.10
2017,05,26,09,40,16.30
2017,05,26,09,41,16.30
2017,05,26,09,42,16.30
2017,05,26,09,43,16.40
2017,05,26,09,44,16.40
2017,05,26,09,45,16.40
2017,05,26,09,46,16.40
2017,05,26,09,47,16.40
2017,05,26,09,48,16.40
2017,05,26,09,49,16.40
2017,05,26,09,50,16.40
2017,05,26,09,51,16.50
2017,05,26,09,52,16.60
2017,05,26,09,53,16.50
2017,05,26,09,54,16.40
2017,05,26,09,55,16.30
2017,05,26,09,56,16.30
2017,05,26,09,57,16.30
2017,05,26,09,58,16.30
2017,05,26,09,59,16.40
2017,05,26,10,00,16.40
2017,05,26,10,01,16.40
2017,05,26,10,02,16.50
2017,05,26,10,03,16.60
2017,05,26,10,04,16.80
2017,05,26,10,05,16.80
2017,05,26,10,06,16.90
2017,05,26,10,07,17.00
2017,05,26,10,08,17.10
2017,05,26,10,09,17.10
2017,05,26,10,10,17.00
2017,05,26,10,11,17.00
2017,05,26,10,12,16.90
2017,05,26,10,13,16.70
2017,05,26,10,14,16.70
2017,05,26,10,15,16.70
2017,05,26,10,16,16.70
2017,05,26,10,17,16.80
2017,05,26,10,18,16.80
2017,05,26,10,19,16.80
2017,05,26,10,20,16.90
2017,05,26,10,21,16.90
2017,05,26,10,22,16.80
2017,05,26,10,23,16.70
2017,05,26,10,24,16.70
2017,05,26,10,25,16.70
2017,05,26,10,26,16.70
2017,05,26,10,27,16.70
2017,05,26,10,28,16.70
2017,05,26,10,29,16.60
2017,05,26,10,30,16.50
2017,05,26,10,31,16.40
2017,05,26,10,32,16.40
2017,05,26,10,33,16.40
2017,05,26,10,34,16.30
2017,05,26,10,35,16.40
2017,05,26,10,36,16.30
2017,05,26,10,37,16.30
2017,05,26,10,38,16.30
2017,05,26,10,39,16.30
2017,05,26,10,40,16.30
2017,05,26,10,41,16.20
2017,05,26,10,42,16.30
2017,05,26,10,43,16.30
2017,05,26,10,44,16.30
2017,05,26,10,45,16.30
2017,05,26,10,46,16.40
2017,05,26,10,47,16.60
2017,05,26,10,48,16.60
2017,05,26,10,49,16.60
2017,05,26,10,50,16.70
2017,05,26,10,51,16.80
2017,05,26,10,52,16.80
2017,05,26,10,53,16.70
2017,05,26,10,54,16.60
2017,05,26,10,55,16.60
2017,05,26,10,56,16.60
2017,05,26,10,57,16.50
2017,05,26,10,58,16.40
2017,05,26,10,59,16.40
2017,05,26,11,00,16.50
2017,05,26,11,01,16.60
2017,05,26,11,02,16.60
2017,05,26,11,03,16.80
2017,05,26,11,04,16.80
2017,05,26,11,05,16.80
2017,05,26,11,06,16.90
2017,05,26,11,07,17.00
2017,05,26,11,08,17.10
2017,05,26,11,09,17.30
2017,05,26,11,10,17.30
2017,05,26,11,11,17.30
2017,05,26,11,12,17.10
2017,05,26,11,13,17.00
2017,05,26,11,14,17.00
2017,05,26,11,15,16.90
2017,05,26,11,16,17.00
2017,05,26,11,17,17.00
2017,05,26,11,18,17.00
2017,05,26,11,19,17.00
2017,05,26,11,20,17.00
2017,05,26,11,21,17.00
2017,05,26,11,22,17.00
2017,05,26,11,23,17.00
2017,05,26,11,24,17.00
2017,05,26,11,25,17.00
2017,05,26,11,26,17.20
2017,05,26,11,27,17.30
2017,05,26,11,28,17.40
2017,05,26,11,29,17.40
2017,05,26,11,30,17.50
2017,05,26,11,31,17.70
2017,05,26,11,32,17.80
2017,05,26,11,33,17.90
2017,05,26,11,34,17.90
2017,05,26,11,35,17.90
2017,05,26,11,36,17.70
2017,05,26,11,37,17.60
2017,05,26,11,38,17.60
2017,05,26,11,39,17.70
2017,05,26,11,40,17.60
2017,05,26,11,41,17.40
2017,05,26,11,42,17.20
2017,05,26,11,43,17.10
2017,05,26,11,44,17.10
2017,05,26,11,45,17.10
2017,05,26,11,46,17.10
2017,05,26,11,47,17.00
2017,05,26,11,48,16.90
2017,05,26,11,49,16.80
2017,05,26,11,50,16.80
2017,05,26,11,51,16.80
2017,05,26,11,52,16.90
2017,05,26,11,53,16.80
2017,05,26,11,54,16.80
2017,05,26,11,55,16.80
2017,05,26,11,56,16.80
2017,05,26,11,57,16.80
2017,05,26,11,58,16.70
2017,05,26,11,59,16.80
2017,05,26,12,00,16.80
2017,05,26,12,01,16.70
2017,05,26,12,02,16.70
2017,05,26,12,03,16.80
2017,05,26,12,04,17.00
2017,05,26,12,05,17.10
2017,05,26,12,06,17.20
2017,05,26,12,07,17.30
2017,05,26,12,08,17.30
2017,05,26,12,09,17.40
2017,05,26,12,10,17.50
2017,05,26,12,11,17.50
2017,05,26,12,12,17.40
2017,05,26,12,13,17.20
2017,05,26,12,14,17.10
2017,05,26,12,15,17.10
2017,05,26,12,16,17.20
2017,05,26,12,17,17.10
2017,05,26,12,18,17.00
2017,05,26,12,19,16.90
2017,05,26,12,20,16.80
2017,05,26,12,21,16.80
2017,05,26,12,22,16.80
2017,05,26,12,23,16.80
2017,05,26,12,24,16.90
2017,05,26,12,25,17.00
2017,05,26,12,26,17.20
2017,05,26,12,27,17.40
2017,05,26,12,28,17.50
2017,05,26,12,29,17.60
2017,05,26,12,30,17.60
2017,05,26,12,31,17.50
2017,05,26,12,32,17.40
2017,05,26,12,33,17.50
2017,05,26,12,34,17.50
2017,05,26,12,35,17.40
2017,05,26,12,36,17.40
2017,05,26,12,37,17.50
2017,05,26,12,38,17.40
2017,05,26,12,39,17.30
2017,05,26,12,40,17.20
2017,05,26,12,41,17.20
2017,05,26,12,42,17.20
2017,05,26,12,43,17.30
2017,05,26,12,44,17.30
2017,05,26,12,45,17.20
2017,05,26,12,46,17.20
2017,05,26,12,47,17.20
2017,05,26,12,48,17.20
2017,05,26,12,49,17.40
2017,05,26,12,50,17.40
2017,05,26,12,51,17.50
2017,05,26,12,52,17.60
2017,05,26,12,53,17.70
2017,05,26,12,54,17.90
2017,05,26,12,55,18.10
2017,05,26,12,56,18.20
2017,05,26,12,57,18.20
2017,05,26,12,58,18.30
2017,05,26,12,59,18.20
2017,05,26,13,00,18.20
2017,05,26,13,01,18.20
2017,05,26,13,02,18.20
2017,05,26,13,03,18.20
2017,05,26,13,04,18.30
2017,05,26,13,05,18.40
2017,05,26,13,06,18.40
2017,05,26,13,07,18.40
2017,05,26,13,08,18.40
2017,05,26,13,09,18.40
2017,05,26,13,10,18.50
2017,05,26,13,11,18.50
2017,05,26,13,12,18.20
2017,05,26,13,13,18.10
2017,05,26,13,14,17.90
2017,05,26,13,15,17.90
2017,05,26,13,16,17.90
2017,05,26,13,17,17.90
2017,05,26,13,18,17.90
2017,05,26,13,19,17.90
2017,05,26,13,20,17.90
2017,05,26,13,21,17.90
2017,05,26,13,22,17.90
2017,05,26,13,23,17.90
2017,05,26,13,24,18.00
2017,05,26,13,25,18.10
2017,05,26,13,26,18.10
2017,05,26,13,27,18.30
2017,05,26,13,28,18.40
2017,05,26,13,29,18.60
2017,05,26,13,30,18.70
2017,05,26,13,31,18.70
2017,05,26,13,32,18.70
2017,05,26,13,33,18.60
2017,05,26,13,34,18.50
2017,05,26,13,35,18.40
2017,05,26,13,36,18.50
2017,05,26,13,37,18.60
2017,05,26,13,38,18.50
2017,05,26,13,39,18.50
2017,05,26,13,40,18.40
2017,05,26,13,41,18.30
2017,05,26,13,42,18.30
2017,05,26,13,43,18.30
2017,05,26,13,44,18.40
2017,05,26,13,45,18.40
2017,05,26,13,46,18.60
2017,05,26,13,47,18.70
2017,05,26,13,48,18.80
2017,05,26,13,49,18.90
2017,05,26,13,50,18.90
2017,05,26,13,51,18.70
2017,05,26,13,52,18.50
2017,05,26,13,53,18.40
2017,05,26,13,54,18.20
2017,05,26,13,55,18.20
2017,05,26,13,56,18.10
2017,05,26,13,57,18.10
2017,05,26,13,58,18.10
2017,05,26,13,59,18.00
2017,05,26,14,00,17.90
2017,05,26,14,01,17.70
2017,05,26,14,02,17.70
2017,05,26,14,03,17.80
2017,05,26,14,04,17.80
2017,05,26,14,05,17.70
2017,05,26,14,06,17.70
2017,05,26,14,07,17.70
2017,05,26,14,08,17.60
2017,05,26,14,09,17.50
2017,05,26,14,10,17.50
2017,05,26,14,11,17.50
2017,05,26,14,12,17.50
2017,05,26,14,13,17.50
2017,05,26,14,14,17.50
2017,05,26,14,15,17.70
2017,05,26,14,16,17.80
2017,05,26,14,17,17.80
2017,05,26,14,18,17.80
2017,05,26,14,19,17.80
2017,05,26,14,20,17.90
2017,05,26,14,21,17.90
2017,05,26,14,22,18.00
2017,05,26,14,23,18.20
2017,05,26,14,24,18.20
2017,05,26,14,25,18.20
2017,05,26,14,26,18.20
2017,05,26,14,27,18.10
2017,05,26,14,28,18.10
2017,05,26,14,29,18.30
2017,05,26,14,30,18.30
2017,05,26,14,31,18.40
2017,05,26,14,32,18.30
2017,05,26,14,33,18.40
2017,05,26,14,34,18.40
2017,05,26,14,35,18.40
2017,05,26,14,36,18.50
2017,05,26,14,37,18.60
2017,05,26,14,38,18.70
2017,05,26,14,39,18.90
2017,05,26,14,40,18.90
2017,05,26,14,41,19.00
2017,05,26,14,42,19.10
2017,05,26,14,43,19.30
2017,05,26,14,44,19.50
2017,05,26,14,45,19.60
2017,05,26,14,46,19.70
2017,05,26,14,47,19.80
2017,05,26,14,48,19.70
2017,05,26,14,49,19.70
2017,05,26,14,50,19.70
2017,05,26,14,51,19.60
2017,05,26,14,52,19.70
2017,05,26,14,53,19.70
2017,05,26,14,54,19.70
2017,05,26,14,55,19.70
2017,05,26,14,56,19.80
2017,05,26,14,57,19.80
2017,05,26,14,58,19.70
2017,05,26,14,59,19.80
2017,05,26,15,00,19.70
2017,05,26,15,01,19.70
2017,05,26,15,02,19.80
2017,05,26,15,03,19.90
2017,05,26,15,04,20.00
2017,05,26,15,05,20.00
2017,05,26,15,06,19.90
2017,05,26,15,07,19.90
2017,05,26,15,08,19.90
2017,05,26,15,09,20.00
2017,05,26,15,10,20.10
2017,05,26,15,11,20.20
2017,05,26,15,12,20.30
2017,05,26,15,13,20.30
2017,05,26,15,14,20.20
2017,05,26,15,15,20.20
2017,05,26,15,16,20.20
2017,05,26,15,17,20.20
2017,05,26,15,18,20.20
2017,05,26,15,19,20.20
2017,05,26,15,20,20.30
2017,05,26,15,21,20.40
2017,05,26,15,22,20.50
2017,05,26,15,23,20.50
2017,05,26,15,24,20.60
2017,05,26,15,25,20.60
2017,05,26,15,26,20.70
2017,05,26,15,27,20.70
2017,05,26,15,28,20.80
2017,05,26,15,29,20.80
2017,05,26,15,30,20.90
2017,05,26,15,31,21.00
2017,05,26,15,32,20.90
2017,05,26,15,33,20.90
2017,05,26,15,34,20.70
2017,05,26,15,35,20.50
2017,05,26,15,36,20.50
2017,05,26,15,37,20.60
2017,05,26,15,38,20.60
2017,05,26,15,39,20.60
2017,05,26,15,40,20.60
2017,05,26,15,41,20.60
2017,05,26,15,42,20.60
2017,05,26,15,43,20.60
2017,05,26,15,44,20.60
2017,05,26,15,45,20.60
2017,05,26,15,46,20.60
2017,05,26,15,47,20.50
2017,05,26,15,48,20.50
2017,05,26,15,49,20.40
2017,05,26,15,50,20.40
2017,05,26,15,51,20.50
2017,05,26,15,52,20.70
2017,05,26,15,53,20.80
2017,05,26,15,54,20.80
2017,05,26,15,55,20.90
2017,05,26,15,56,20.90
2017,05,26,15,57,20.90
2017,05,26,15,58,20.70
2017,05,26,15,59,20.50
2017,05,26,16,00,20.40
2017,05,26,16,01,20.30
2017,05,26,16,02,20.20
2017,05,26,16,03,20.20
2017,05,26,16,04,20.10
2017,05,26,16,05,20.00
2017,05,26,16,06,19.90
2017,05,26,16,07,19.90
2017,05,26,16,08,19.90
2017,05,26,16,09,19.80
2017,05,26,16,10,19.70
2017,05,26,16,11,19.60
2017,05,26,16,12,19.50
2017,05,26,16,13,19.50
2017,05,26,16,14,19.40
2017,05,26,16,15,19.30
2017,05,26,16,16,19.40
2017,05,26,16,17,19.50
2017,05,26,16,18,19.60
2017,05,26,16,19,19.70
2017,05,26,16,20,19.80
2017,05,26,16,21,19.80
2017,05,26,16,22,19.80
2017,05,26,16,23,19.70
2017,05,26,16,24,19.80
2017,05,26,16,25,19.70
2017,05,26,16,26,19.60
2017,05,26,16,27,19.40
2017,05,26,16,28,19.20
2017,05,26,16,29,18.90
2017,05,26,16,30,18.80
2017,05,26,16,31,18.80
2017,05,26,16,32,18.90
2017,05,26,16,33,19.00
2017,05,26,16,34,19.10
2017,05,26,16,35,19.10
2017,05,26,16,36,19.10
2017,05,26,16,37,19.10
2017,05,26,16,38,19.10
2017,05,26,16,39,19.20
2017,05,26,16,40,19.10
2017,05,26,16,41,19.10
2017,05,26,16,42,19.10
2017,05,26,16,43,19.10
2017,05,26,16,44,19.00
2017,05,26,16,45,18.90
2017,05,26,16,46,19.00
2017,05,26,16,47,19.10
2017,05,26,16,48,19.10
2017,05,26,16,49,19.20
2017,05,26,16,50,19.40
2017,05,26,16,51,19.40
2017,05,26,16,52,19.50
2017,05,26,16,53,19.60
2017,05,26,16,54,19.70
2017,05,26,16,55,19.90
2017,05,26,16,56,19.90
2017,05,26,16,57,19.90
2017,05,26,16,58,19.70
2017,05,26,16,59,19.60
2017,05,26,17,00,19.50
2017,05,26,17,01,19.50
2017,05,26,17,02,19.60
2017,05,26,17,03,19.70
2017,05,26,17,04,19.80
2017,05,26,17,05,19.90
2017,05,26,17,06,19.90
2017,05,26,17,07,19.80
2017,05,26,17,08,19.80
2017,05,26,17,09,19.80
2017,05,26,17,10,19.80
2017,05,26,17,11,19.70
2017,05,26,17,12,19.70
2017,05,26,17,13,19.80
2017,05,26,17,14,19.90
2017,05,26,17,15,20.00
2017,05,26,17,16,20.10
2017,05,26,17,17,20.10
2017,05,26,17,18,20.20
2017,05,26,17,19,20.20
2017,05,26,17,20,20.20
2017,05,26,17,21,20.20
2017,05,26,17,22,20.30